Flag for U.S.A. Weather past 2 weeks in Marengo, Indiana, U.S.A.

Now
62 °F

Broken clouds.


Feels Like: 62 °F
Forecast: 51 / 66 °F
Wind: 3 mph from East

Location: Bowling Green-Warren County Regional Airport

Current Time: Apr 24, 2015 at 9:05:21 PM

Latest Report: Apr 24, 2015 at 6:53 PM


Visibility: 10 mi

Pressure: 29.96 "Hg

Humidity: 44%

Dew point: 40 °F

Location of MarengoLocation

Historic Weather in Marengo — Graph

°F

Marengo temperature yesterday

Maximum temperature yesterday: 64 °F (at 4:53 PM)
Minimum temperature yesterday: 38 °F (at 6:53 AM)
Average temperature yesterday: 52 °F

Past Weeks' High & Low Weather Summary

 TemperatureHumidityPressure
High80 °F (Apr 18, 3:53 PM)94% (Apr 19, 9:53 AM)30.27 "Hg (Apr 19, 9:53 AM)
Low36 °F (Apr 24, 5:53 AM)21% (Apr 11, 5:53 PM)29.50 "Hg (Apr 19, 4:53 PM)
Average61 °F67%29.99 "Hg
* Reported Apr 9 6:53 PM — Apr 24 6:53 PM, Marengo, Weather by CustomWeather, © 2015

Note: Actual official high and low records may vary slightly from our data, if they occured in-between our weather recording intervals... More about our weather records

Advertising

Marengo weather history for previous 24 hours

 ConditionsComfort  
Time TempWeatherWind HumidityBarometerVisibility
6:53 PM
Fri, Apr 24
62 °FBroken clouds.3 mph44%29.96 "Hg10 mi
5:53 PM63 °FPartly sunny.6 mph34%29.98 "Hg10 mi
4:53 PM63 °FSunny.3 mph37%29.98 "Hg10 mi
3:53 PM63 °FSunny.7 mph34%30.01 "Hg10 mi
2:53 PM64 °FSunny.6 mph25%30.04 "Hg10 mi
1:53 PM63 °FSunny.3 mph26%30.07 "Hg10 mi
12:53 PM61 °FSunny.3 mph27%30.10 "Hg10 mi
11:53 AM59 °FSunny.9 mph27%30.11 "Hg10 mi
10:53 AM57 °FSunny.8 mph36%30.13 "Hg10 mi
9:53 AM53 °FSunny.9 mph45%30.13 "Hg10 mi
8:53 AM44 °FSunny.No wind82%30.15 "Hg10 mi
7:53 AM37 °FSunny.No wind86%30.14 "Hg10 mi
6:53 AM36 °FClear.No wind89%30.11 "Hg10 mi
5:53 AM36 °FClear.No wind89%30.11 "Hg10 mi
4:53 AM37 °FClear.No wind89%30.10 "Hg10 mi
3:53 AM38 °FClear.3 mph83%30.10 "Hg10 mi
2:53 AM41 °FClear.No wind80%30.10 "Hg10 mi
1:53 AM40 °FClear.No wind80%30.10 "Hg10 mi
11:53 PM
Thu, Apr 23
45 °FClear.No wind63%30.09 "Hg10 mi
10:53 PM47 °FClear.No wind56%30.08 "Hg10 mi
9:53 PM52 °FClear.No wind40%30.07 "Hg10 mi
Weather by CustomWeather, © 2015

See weather overviewHow to use our weather pages